SCP
0 0 0 0 0 0 0 0 0 0 0 0 0 0 0 0 0 0 0 0 0 0 0 0 0 0 0 0 0 0 0 0 0 0 0 0 0 0 0 0 0 0 0 0
0 0 0 0 0 0 0 0 0 0 0 0 0 0 0 0 0 0 0 0 0 0 0 0 0 0 0 0 0 0 0 0 0 0 0 0 0 0 0 0 0 0 0 0
0 0 0 0 0 0 0 0 0 0 0 0 0 0 0 0 0 0 0 0 0 0 0 0 0 0 0 0 0 0 0 0 0 0 0 0 0 0 0 0 0 0 0 0
0 0 0 0 0 0 0 0 0 0 0 0 0 0 0 0 0 0 0 0 0 0 0 0 0 0 0 0 0 0 0 0 0 0 0 0 0 0 0 0 0 0 0 0
0 0 0 0 0 0 0 0 0 0 0 0 0 0 0 0 0 0 0 0 0 0 0 0 0 0 0 0 0 0 0 0 0 0 0 0 0 0 0 0 0 0 0 0
0 0 0 0 0 0 0 0 0 0 0 0 0 0 0 0 0 0 0 0 0 0 0 0 0 0 0 0 0 0 0 0 0 0 0 0 0 0 0 0 0 0 0 0
0 0 0 0 0 0 0 0 0 0 0 0 0 0 0 0 0 0 0 0 0 0 0 0 0 0 0 0 0 0 0 0 0 0 0 0 0 0 0 0 0 0 0 0
0 0 0 0 0 -0 0 0 0 0 0 0 0 0 0 0 0 0 0 0 0 0 0 0 0 0 0 0 0 0 0 0 0 0 0 0 0 0 0 0 0 0 0 0
0 0 0 0 0 0 0 0 0 0 0 0 0 0 0 0 0 0 0 0 0 0 0 0 0 0 0 0 0 0 0 0 0 0 0 0 0 0 0 0 0 0 0 0
0 0 0 0 0 0 0 0 0 0 0 0 0 0 0 0 0 0 0 0 0 0 0 0 0 0 0 0 0 0 0 0 0 0 0 0 0 0 0 0 0 0 0 0
0 0 0 0 0 0 0 0 0 0 0 0 0 0 0 0 0 0 0 0 0 0 0 0 0 0 0 0 0 0 0 0 0 0 0 0 0 0 0 0 0 0 0 0
0 0 0 0 0 0 0 0 0 0 0 0 0 0 0 0 0 0 0 0 0 0 0 0 0 0 0 0 0 0 0 0 0 0 0 0 0 0 0 0 0 0 0 0
0 0 0 0 0 0 0 0 0 0 0 0 0 0 0 0 0 0 0 0 0 0 0 0 0 0 0 0 0 0 0 0 0 0 0 0 0 0 0 0 0 0 0 0
0 0 0 0 0 0 0 0 0 0 0 0 0 0 0 0 0 0 0 0 0 0 0 0 0 0 0 0 0 0 0 0 0 0 0 0 0 0 0 0 0 0 0 0
0 0 0 0 0 0 0 0 0 0 0 0 0 0 0 0 0 0 0 0 0 0 0 0 0 0 0 0 0 0 0 0 0 0 0 0 0 0 0 0 0 0 0 0
0 0 0 0 0 0 0 0 0 0 0 0 0 0 0 0 0 0 0 0 0 0 0 0 0 0 0 0 0 0 0 0 0 0 0 0 0 0 0 0 0 0 0 0
-0 0 0 0 0 0 0 0 0 0 0 0 0 0 0 0 0 0 0 0 0 0 0 0 0 0 0 0 0 0 0 0 0 0 0 0 0 0 0 0 0 0 0 0
-0 0 0 0 0 0 0 0 0 0 -0 -0 0 0 0 0 0 0 0 0 0 0 0 0 0 0 0 0 0 0 0 0 0 0 0 0 0 0 0 0 0 0 0 0
-0 0 0 0 0 0 0 0 0 0 0 0 0 0 0 0 0 0 0 0 0 0 0 0 0 0 0 0 0 0 0 0 0 0 0 0 0 0 0 0 0 0 0 0
0 0 0 0 -0 0 0 0 0 0 0 0 0 0 0 0 0 0 0 0 0 0 0 0 0 0 0 0 0 0 0 0 0 0 0 0 0 0 0 0 0 0 0 0
0 0 0 0 0 -0 0 0 0 0 0 0 0 0 0 0 0 0 0 0 0 0 0 0 0 0 0 0 0 0 0 0 0 0 0 0 0 0 0 0 0 0 0 0
0 0 0 0 0 0 0 0 0 0 0 0 0 0 0 0 0 0 0 0 0 0 0 0 0 0 0 0 0 0 0 0 0 0 0 0 0 0 0 0 0 0 0 0
0 0 0 0 0 0 0 0 0 0 0 0 0 0 0 0 0 0 0 0 0 0 0 0 0 0 0 0 0 0 0 0 0 0 0 0 0 0 0 0 0 0 0 0
0 0 0 0 0 0 0 -0 -0 0 0 0 0 0 0 0 0 0 0 0 0 0 0 0 0 0 0 0 0 0 0 0 0 0 0 0 0 0 0 0 0 0 0 0
0 0 0 0 0 -0 -0 -0 -0 -0 -0 0 0 0 0 0 0 0 0 0 0 0 0 0 0 0 0 0 0 0 0 0 0 0 0 0 0 0 0 0 0 0 0 0
0 0 0 0 0 0 -0 -0 -0 0 0 0 0 0 0 0 0 0 0 0 0 0 0 0 0 0 0 0 0 0 0 0 0 0 0 0 0 0 0 0 0 0 0 0
0 0 0 0 0 0 0 -0 -0 -0 0 0 0 0 0 0 0 0 0 0 0 0 0 0 0 0 0 0 0 0 0 0 0 0 0 0 0 0 0 0 0 0 0 0
Wind_Speed_500mb
74 62 61 61 55 47 46 30 9 29 52 24 16 30 15 15 18 57 14 9 18 22 19 15 17 26 23 40 29 21 16 11 12 26 3 4 5 20 24 10 13 13 5 33
91 75 69 67 64 67 61 24 29 23 63 16 25 10 14 30 15 21 19 23 17 13 15 10 23 30 21 48 26 23 18 8 4 13 3 4 12 13 20 2 4 44 16 29
81 91 82 78 77 73 73 27 9 26 55 50 21 27 28 27 37 45 20 15 15 11 17 26 15 10 10 28 25 26 41 13 17 33 26 11 13 17 19 34 26 40 55 73
50 54 89 92 92 85 99 47 22 33 14 38 40 26 16 46 31 26 58 31 40 27 26 29 30 17 2 3 12 14 17 27 18 43 40 9 30 48 25 44 54 38 77 64
63 65 65 75 106 104 115 46 27 27 10 26 49 55 69 53 23 24 43 47 30 49 48 44 32 45 14 20 4 15 7 17 11 30 19 16 40 55 47 50 61 53 71 78
64 59 73 77 110 119 75 78 72 62 40 24 30 57 67 56 44 47 61 44 40 44 55 83 89 43 31 23 28 25 18 12 8 40 7 7 28 54 52 43 49 41 45 75
59 62 66 75 84 94 104 81 56 22 37 35 51 34 53 58 54 63 49 71 39 82 59 32 19 12 3 15 18 33 18 15 8 9 10 13 22 5 14 40 47 36 47 54
42 49 59 54 65 72 108 104 62 52 28 41 54 67 51 54 78 66 63 75 83 56 34 6 1 3 6 14 21 24 30 25 13 11 18 20 52 19 18 18 60 44 56 56
43 48 45 68 72 66 76 115 124 76 29 41 80 52 61 44 36 35 64 71 65 41 12 12 32 25 13 11 5 6 21 18 18 8 11 20 32 8 17 15 33 31 44 39
50 42 42 50 51 69 82 93 81 87 79 76 72 42 42 66 53 23 12 47 19 52 26 25 23 30 17 18 20 15 10 8 38 34 22 20 23 20 27 10 28 12 35 30
57 60 53 41 40 51 67 80 70 96 76 75 77 94 67 32 70 31 17 13 5 6 24 16 15 15 20 12 12 24 23 23 12 12 9 32 36 19 24 9 9 28 32 47
52 59 68 58 60 43 37 62 78 83 78 69 69 125 128 117 105 82 58 24 16 30 14 12 11 10 9 20 21 5 15 21 19 27 22 5 75 19 76 30 30 28 44 49
47 53 60 61 61 60 59 64 54 54 58 72 94 70 104 120 126 125 54 35 57 33 42 14 10 10 11 14 15 11 11 18 10 8 42 45 54 57 40 50 39 49 45 42
55 56 56 60 67 63 61 71 65 59 36 10 24 61 80 100 127 117 126 99 81 73 59 9 10 11 19 15 9 24 16 30 32 21 43 7 53 71 59 65 51 51 43 51
57 57 59 60 62 70 67 76 83 81 51 10 10 24 54 72 82 117 113 105 77 50 16 12 19 9 10 3 7 15 19 28 23 25 31 25 23 77 87 76 78 57 57 66
57 59 59 58 60 60 69 54 72 90 95 31 13 20 67 93 84 86 113 124 115 63 30 17 18 28 24 16 17 23 59 77 83 52 43 46 44 39 79 87 83 68 66 70
57 59 59 59 59 56 64 27 16 11 41 21 14 19 61 86 80 88 88 85 70 73 26 19 16 20 33 12 29 35 82 95 82 73 47 23 46 36 66 79 78 70 69 79
58 58 58 60 62 62 72 93 86 76 57 20 8 8 12 31 42 25 68 62 69 56 28 4 15 11 8 17 36 72 98 61 65 72 79 60 65 42 63 61 64 78 89 85
55 55 59 65 69 56 69 64 62 73 54 8 7 11 23 23 13 5 17 18 15 21 15 15 19 11 15 23 49 51 82 59 42 60 68 57 68 70 61 64 73 80 86 79
55 54 27 14 24 39 42 49 37 32 43 46 25 41 23 17 2 5 4 5 6 7 11 18 8 7 9 44 47 41 62 66 71 60 33 55 56 63 68 81 77 84 83 82
45 15 19 49 51 54 16 9 11 13 11 25 39 50 38 29 6 5 6 4 3 6 7 16 9 7 30 54 43 45 52 76 86 88 104 102 93 85 78 82 84 83 78 77
34 27 43 45 16 16 11 10 10 14 14 9 28 39 60 16 18 6 10 8 5 9 7 4 5 9 15 54 64 66 64 77 84 88 84 89 80 76 86 89 89 80 70 73
33 14 11 10 11 15 13 14 10 7 4 7 9 6 24 18 17 5 9 15 13 10 9 7 8 8 18 43 63 81 85 84 91 81 87 72 66 69 82 92 82 75 69 65
15 9 12 10 11 11 7 10 11 13 12 7 10 10 9 7 9 5 8 3 3 9 7 13 7 15 45 53 55 58 65 75 76 78 68 54 67 78 82 83 78 74 68 64
14 12 11 11 14 23 24 22 15 34 34 20 4 3 6 3 5 5 8 3 8 9 10 6 7 40 27 41 47 53 56 58 62 66 59 62 62 67 67 66 63 63 63 64
14 13 10 11 11 23 23 15 17 48 31 22 7 6 6 7 9 8 13 16 14 3 6 13 38 40 22 21 37 42 48 59 67 60 70 66 63 65 63 59 58 60 59 61
8 9 38 46 18 21 25 33 32 32 21 8 5 8 6 8 5 7 9 6 8 13 25 35 37 36 27 6 26 37 45 54 64 64 62 63 61 60 59 59 59 56 55 54
Wind_Direction_500mb
258 254 245 238 235 230 208 206 232 193 190 181 219 227 193 233 213 229 250 199 200 188 182 204 210 213 204 188 157 169 200 169 202 211 237 279 244 208 186 191 223 235 218 260
250 247 239 233 228 224 195 208 225 203 183 215 215 236 234 237 190 203 216 230 194 195 202 248 213 242 210 182 160 172 179 213 315 312 359 331 224 211 218 358 299 248 239 266
255 246 237 233 222 224 209 195 217 192 204 224 225 215 230 224 221 231 206 204 183 163 222 219 256 222 221 196 205 205 158 187 181 240 238 137 218 200 203 213 239 255 243 263
257 264 248 235 223 214 207 196 216 199 203 220 225 224 238 224 224 211 209 240 224 208 235 225 232 225 237 272 210 178 172 236 194 247 260 194 263 260 206 218 238 237 261 261
248 255 270 265 234 218 206 209 208 185 207 201 207 220 233 232 221 186 216 226 206 219 230 217 231 224 178 204 163 173 193 246 154 258 244 223 259 264 254 245 251 249 254 267
237 253 256 271 251 223 210 221 232 219 220 202 192 222 234 235 223 236 229 225 229 231 227 229 236 231 210 208 184 184 168 184 139 256 119 359 273 252 239 247 243 233 245 246
250 243 242 249 243 239 235 219 225 217 233 217 220 217 219 228 225 229 224 222 223 239 235 223 220 213 267 226 203 175 167 190 154 252 103 233 258 126 186 219 247 219 246 255
249 253 239 229 233 240 234 236 221 237 244 232 237 232 224 223 223 228 229 231 229 227 176 92 101 283 303 222 215 213 216 208 221 220 213 306 291 230 178 177 273 202 228 244
250 248 249 253 250 247 249 243 234 245 243 233 238 243 227 225 225 232 235 235 234 194 178 200 226 224 193 208 246 336 215 233 209 154 206 225 259 136 145 137 274 195 209 231
258 255 257 250 257 254 259 264 255 239 253 250 235 228 231 226 224 232 199 210 191 201 216 224 223 225 184 205 190 162 156 191 215 227 242 270 218 160 149 150 261 173 188 170
285 277 270 263 256 261 257 267 259 251 273 249 218 223 219 205 209 215 162 120 194 167 218 223 213 217 204 175 184 175 167 168 193 204 212 260 141 129 188 205 152 171 177 179
284 284 279 284 276 266 280 277 267 259 263 265 272 237 232 219 219 213 193 205 160 195 195 204 210 210 172 179 220 160 192 187 178 192 211 197 179 192 204 177 168 180 182 184
299 291 284 283 279 285 276 288 283 287 265 269 260 257 249 238 231 225 224 215 217 188 201 183 208 213 155 177 217 138 241 192 221 127 244 229 206 219 205 196 187 187 187 189
291 294 293 287 278 280 281 279 280 275 279 253 254 247 255 247 231 228 227 225 215 222 200 198 182 203 188 197 212 196 181 157 207 242 266 8 230 219 216 208 201 195 195 203
285 289 286 293 288 276 278 274 271 266 258 295 282 251 238 236 239 227 225 225 216 198 189 206 217 185 168 176 143 192 193 195 191 225 226 205 242 212 211 209 205 203 202 194
286 287 289 286 293 282 276 286 272 261 262 257 260 258 253 257 251 240 231 229 230 212 211 218 214 219 203 186 201 221 220 223 221 238 227 218 222 232 211 206 210 213 210 204
285 287 288 288 294 277 253 252 252 248 298 267 249 246 244 248 248 236 238 236 230 226 220 229 206 198 203 216 228 212 232 233 229 226 205 179 190 192 199 206 213 214 211 213
286 285 289 289 288 287 268 260 267 269 285 255 247 289 312 219 212 213 214 220 224 228 233 156 217 172 219 229 219 235 243 237 220 210 209 214 208 193 187 193 206 209 208 200
283 287 287 292 286 272 268 267 274 261 242 247 260 206 255 190 196 212 174 217 207 196 218 212 164 170 212 207 215 226 231 215 198 180 196 198 186 181 186 195 203 201 197 197
283 288 293 258 271 286 278 278 247 240 233 228 241 246 258 197 212 170 141 203 238 218 210 138 220 235 206 228 222 219 219 202 186 159 155 167 179 192 194 197 203 202 197 197
280 250 245 276 280 304 252 228 236 197 196 188 219 225 230 238 172 165 225 222 223 247 219 185 208 237 222 223 216 216 208 201 201 203 197 189 193 197 197 199 201 193 200 201
261 264 282 288 253 226 217 218 220 222 209 212 198 213 215 188 174 137 171 198 212 249 160 257 259 256 225 197 202 204 199 200 199 200 195 193 204 208 198 200 191 195 200 201
275 252 231 211 245 234 241 222 263 270 265 217 158 171 187 157 187 209 181 196 206 140 189 225 234 263 277 208 194 197 206 202 197 186 190 197 204 200 198 191 195 200 200 199
209 198 246 186 253 239 215 322 305 290 274 291 242 147 162 153 188 149 172 352 77 202 225 226 236 222 222 210 199 189 186 187 183 190 190 200 198 194 197 203 205 202 198 196
206 208 231 234 233 266 286 307 303 311 297 231 206 149 147 142 124 118 85 108 227 219 233 241 323 321 221 189 190 187 182 179 179 181 181 193 189 186 188 195 199 197 195 194
222 242 257 269 297 271 275 281 285 291 255 234 223 195 179 182 142 178 197 164 210 244 357 336 346 346 24 169 172 181 187 186 187 186 188 185 182 183 184 183 187 189 193 192
238 257 236 247 255 263 278 288 285 283 252 231 226 213 192 121 194 157 8 26 5 335 333 345 352 357 1 96 171 181 188 189 184 179 178 182 181 181 180 180 179 182 182 185
Wind_Speed_850mb
74 62 61 61 55 47 46 30 9 29 52 24 16 30 15 15 18 57 14 9 18 22 19 15 17 26 23 40 29 21 16 11 12 26 3 4 5 20 24 10 13 13 5 33
91 75 69 67 64 67 61 24 29 23 63 16 25 10 14 30 15 21 19 23 17 13 15 10 23 30 21 48 26 23 18 8 4 13 3 4 12 13 20 2 4 44 16 29
81 91 82 78 77 73 73 27 9 26 55 50 21 27 28 27 37 45 20 15 15 11 17 26 15 10 10 28 25 26 41 13 17 33 26 11 13 17 19 34 26 40 55 73
50 54 89 92 92 85 99 47 22 33 14 38 40 26 16 46 31 26 58 31 40 27 26 29 30 17 2 3 12 14 17 27 18 43 40 9 30 48 25 44 54 38 77 64
63 65 65 75 106 104 115 46 27 27 10 26 49 55 69 53 23 24 43 47 30 49 48 44 32 45 14 20 4 15 7 17 11 30 19 16 40 55 47 50 61 53 71 78
64 59 73 77 110 119 75 78 72 62 40 24 30 57 67 56 44 47 61 44 40 44 55 83 89 43 31 23 28 25 18 12 8 40 7 7 28 54 52 43 49 41 45 75
59 62 66 75 84 94 104 81 56 22 37 35 51 34 53 58 54 63 49 71 39 82 59 32 19 12 3 15 18 33 18 15 8 9 10 13 22 5 14 40 47 36 47 54
42 49 59 54 65 72 108 104 62 52 28 41 54 67 51 54 78 66 63 75 83 56 34 6 1 3 6 14 21 24 30 25 13 11 18 20 52 19 18 18 60 44 56 56
43 48 45 68 72 66 76 115 124 76 29 41 80 52 61 44 36 35 64 71 65 41 12 12 32 25 13 11 5 6 21 18 18 8 11 20 32 8 17 15 33 31 44 39
50 42 42 50 51 69 82 93 81 87 79 76 72 42 42 66 53 23 12 47 19 52 26 25 23 30 17 18 20 15 10 8 38 34 22 20 23 20 27 10 28 12 35 30
57 60 53 41 40 51 67 80 70 96 76 75 77 94 67 32 70 31 17 13 5 6 24 16 15 15 20 12 12 24 23 23 12 12 9 32 36 19 24 9 9 28 32 47
52 59 68 58 60 43 37 62 78 83 78 69 69 125 128 117 105 82 58 24 16 30 14 12 11 10 9 20 21 5 15 21 19 27 22 5 75 19 76 30 30 28 44 49
47 53 60 61 61 60 59 64 54 54 58 72 94 70 104 120 126 125 54 35 57 33 42 14 10 10 11 14 15 11 11 18 10 8 42 45 54 57 40 50 39 49 45 42
55 56 56 60 67 63 61 71 65 59 36 10 24 61 80 100 127 117 126 99 81 73 59 9 10 11 19 15 9 24 16 30 32 21 43 7 53 71 59 65 51 51 43 51
57 57 59 60 62 70 67 76 83 81 51 10 10 24 54 72 82 117 113 105 77 50 16 12 19 9 10 3 7 15 19 28 23 25 31 25 23 77 87 76 78 57 57 66
57 59 59 58 60 60 69 54 72 90 95 31 13 20 67 93 84 86 113 124 115 63 30 17 18 28 24 16 17 23 59 77 83 52 43 46 44 39 79 87 83 68 66 70
57 59 59 59 59 56 64 27 16 11 41 21 14 19 61 86 80 88 88 85 70 73 26 19 16 20 33 12 29 35 82 95 82 73 47 23 46 36 66 79 78 70 69 79
58 58 58 60 62 62 72 93 86 76 57 20 8 8 12 31 42 25 68 62 69 56 28 4 15 11 8 17 36 72 98 61 65 72 79 60 65 42 63 61 64 78 89 85
55 55 59 65 69 56 69 64 62 73 54 8 7 11 23 23 13 5 17 18 15 21 15 15 19 11 15 23 49 51 82 59 42 60 68 57 68 70 61 64 73 80 86 79
55 54 27 14 24 39 42 49 37 32 43 46 25 41 23 17 2 5 4 5 6 7 11 18 8 7 9 44 47 41 62 66 71 60 33 55 56 63 68 81 77 84 83 82
45 15 19 49 51 54 16 9 11 13 11 25 39 50 38 29 6 5 6 4 3 6 7 16 9 7 30 54 43 45 52 76 86 88 104 102 93 85 78 82 84 83 78 77
34 27 43 45 16 16 11 10 10 14 14 9 28 39 60 16 18 6 10 8 5 9 7 4 5 9 15 54 64 66 64 77 84 88 84 89 80 76 86 89 89 80 70 73
33 14 11 10 11 15 13 14 10 7 4 7 9 6 24 18 17 5 9 15 13 10 9 7 8 8 18 43 63 81 85 84 91 81 87 72 66 69 82 92 82 75 69 65
15 9 12 10 11 11 7 10 11 13 12 7 10 10 9 7 9 5 8 3 3 9 7 13 7 15 45 53 55 58 65 75 76 78 68 54 67 78 82 83 78 74 68 64
14 12 11 11 14 23 24 22 15 34 34 20 4 3 6 3 5 5 8 3 8 9 10 6 7 40 27 41 47 53 56 58 62 66 59 62 62 67 67 66 63 63 63 64
14 13 10 11 11 23 23 15 17 48 31 22 7 6 6 7 9 8 13 16 14 3 6 13 38 40 22 21 37 42 48 59 67 60 70 66 63 65 63 59 58 60 59 61
8 9 38 46 18 21 25 33 32 32 21 8 5 8 6 8 5 7 9 6 8 13 25 35 37 36 27 6 26 37 45 54 64 64 62 63 61 60 59 59 59 56 55 54
Wind_Direction_850mb
258 254 245 238 235 230 208 206 232 193 190 181 219 227 193 233 213 229 250 199 200 188 182 204 210 213 204 188 157 169 200 169 202 211 237 279 244 208 186 191 223 235 218 260
250 247 239 233 228 224 195 208 225 203 183 215 215 236 234 237 190 203 216 230 194 195 202 248 213 242 210 182 160 172 179 213 315 312 359 331 224 211 218 358 299 248 239 266
255 246 237 233 222 224 209 195 217 192 204 224 225 215 230 224 221 231 206 204 183 163 222 219 256 222 221 196 205 205 158 187 181 240 238 137 218 200 203 213 239 255 243 263
257 264 248 235 223 214 207 196 216 199 203 220 225 224 238 224 224 211 209 240 224 208 235 225 232 225 237 272 210 178 172 236 194 247 260 194 263 260 206 218 238 237 261 261
248 255 270 265 234 218 206 209 208 185 207 201 207 220 233 232 221 186 216 226 206 219 230 217 231 224 178 204 163 173 193 246 154 258 244 223 259 264 254 245 251 249 254 267
237 253 256 271 251 223 210 221 232 219 220 202 192 222 234 235 223 236 229 225 229 231 227 229 236 231 210 208 184 184 168 184 139 256 119 359 273 252 239 247 243 233 245 246
250 243 242 249 243 239 235 219 225 217 233 217 220 217 219 228 225 229 224 222 223 239 235 223 220 213 267 226 203 175 167 190 154 252 103 233 258 126 186 219 247 219 246 255
249 253 239 229 233 240 234 236 221 237 244 232 237 232 224 223 223 228 229 231 229 227 176 92 101 283 303 222 215 213 216 208 221 220 213 306 291 230 178 177 273 202 228 244
250 248 249 253 250 247 249 243 234 245 243 233 238 243 227 225 225 232 235 235 234 194 178 200 226 224 193 208 246 336 215 233 209 154 206 225 259 136 145 137 274 195 209 231
258 255 257 250 257 254 259 264 255 239 253 250 235 228 231 226 224 232 199 210 191 201 216 224 223 225 184 205 190 162 156 191 215 227 242 270 218 160 149 150 261 173 188 170
285 277 270 263 256 261 257 267 259 251 273 249 218 223 219 205 209 215 162 120 194 167 218 223 213 217 204 175 184 175 167 168 193 204 212 260 141 129 188 205 152 171 177 179
284 284 279 284 276 266 280 277 267 259 263 265 272 237 232 219 219 213 193 205 160 195 195 204 210 210 172 179 220 160 192 187 178 192 211 197 179 192 204 177 168 180 182 184
299 291 284 283 279 285 276 288 283 287 265 269 260 257 249 238 231 225 224 215 217 188 201 183 208 213 155 177 217 138 241 192 221 127 244 229 206 219 205 196 187 187 187 189
291 294 293 287 278 280 281 279 280 275 279 253 254 247 255 247 231 228 227 225 215 222 200 198 182 203 188 197 212 196 181 157 207 242 266 8 230 219 216 208 201 195 195 203
285 289 286 293 288 276 278 274 271 266 258 295 282 251 238 236 239 227 225 225 216 198 189 206 217 185 168 176 143 192 193 195 191 225 226 205 242 212 211 209 205 203 202 194
286 287 289 286 293 282 276 286 272 261 262 257 260 258 253 257 251 240 231 229 230 212 211 218 214 219 203 186 201 221 220 223 221 238 227 218 222 232 211 206 210 213 210 204
285 287 288 288 294 277 253 252 252 248 298 267 249 246 244 248 248 236 238 236 230 226 220 229 206 198 203 216 228 212 232 233 229 226 205 179 190 192 199 206 213 214 211 213
286 285 289 289 288 287 268 260 267 269 285 255 247 289 312 219 212 213 214 220 224 228 233 156 217 172 219 229 219 235 243 237 220 210 209 214 208 193 187 193 206 209 208 200
283 287 287 292 286 272 268 267 274 261 242 247 260 206 255 190 196 212 174 217 207 196 218 212 164 170 212 207 215 226 231 215 198 180 196 198 186 181 186 195 203 201 197 197
283 288 293 258 271 286 278 278 247 240 233 228 241 246 258 197 212 170 141 203 238 218 210 138 220 235 206 228 222 219 219 202 186 159 155 167 179 192 194 197 203 202 197 197
280 250 245 276 280 304 252 228 236 197 196 188 219 225 230 238 172 165 225 222 223 247 219 185 208 237 222 223 216 216 208 201 201 203 197 189 193 197 197 199 201 193 200 201
261 264 282 288 253 226 217 218 220 222 209 212 198 213 215 188 174 137 171 198 212 249 160 257 259 256 225 197 202 204 199 200 199 200 195 193 204 208 198 200 191 195 200 201
275 252 231 211 245 234 241 222 263 270 265 217 158 171 187 157 187 209 181 196 206 140 189 225 234 263 277 208 194 197 206 202 197 186 190 197 204 200 198 191 195 200 200 199
209 198 246 186 253 239 215 322 305 290 274 291 242 147 162 153 188 149 172 352 77 202 225 226 236 222 222 210 199 189 186 187 183 190 190 200 198 194 197 203 205 202 198 196
206 208 231 234 233 266 286 307 303 311 297 231 206 149 147 142 124 118 85 108 227 219 233 241 323 321 221 189 190 187 182 179 179 181 181 193 189 186 188 195 199 197 195 194
222 242 257 269 297 271 275 281 285 291 255 234 223 195 179 182 142 178 197 164 210 244 357 336 346 346 24 169 172 181 187 186 187 186 188 185 182 183 184 183 187 189 193 192
238 257 236 247 255 263 278 288 285 283 252 231 226 213 192 121 194 157 8 26 5 335 333 345 352 357 1 96 171 181 188 189 184 179 178 182 181 181 180 180 179 182 182 185